Flag for Canada Weather past 2 weeks in Winnipeg, Manitoba, Canada

Now
24 °F

Cold.


Feels Like: 19 °F
Forecast: 13 / 33 °F
Wind: 3 mph from Southwest

Location: Winnipeg The Forks

Current Time: Mar 27, 2015 at 11:16:21 AM

Latest Report: Mar 27, 2015 at 10:00 AM


Visibility: N/A

Pressure: 30.21 "Hg

Humidity: 42%

Dew point: 4 °F

Location of WinnipegLocation

Historic Weather in Winnipeg — Graph

°F

Winnipeg temperature yesterday

Maximum temperature yesterday: 26 °F (at 5:00 PM)
Minimum temperature yesterday: 17 °F (at 8:00 AM)
Average temperature yesterday: 22 °F

Past Weeks' High & Low Weather Summary

 TemperatureHumidityPressure
High60 °F (Mar 15, 3:00 PM)100% (Mar 24, 8:00 AM)30.48 "Hg (Mar 24, 8:00 AM)
Low7 °F (Mar 21, 4:00 AM)26% (Mar 15, 5:00 PM)29.51 "Hg (Mar 15, 6:00 AM)
Average33 °F63%30.13 "Hg
* Reported Mar 12 10:00 AM — Mar 27 10:00 AM, Winnipeg, Weather by CustomWeather, © 2015

Note: Actual official high and low records may vary slightly from our data, if they occured in-between our weather recording intervals... More about our weather records

Advertising

Winnipeg weather history for previous 24 hours

 ConditionsComfort  
Time TempWeatherWind HumidityBarometerVisibility
10:00 AM
Fri, Mar 27
24 °FCold.3 mph42%30.21 "HgN/A
9:00 AM21 °FCold.2 mph52%30.23 "HgN/A
8:00 AM18 °FCold.2 mph57%30.25 "HgN/A
7:00 AM17 °FCold.5 mph64%30.27 "HgN/A
6:00 AM16 °FCold.2 mph64%30.28 "HgN/A
5:00 AM16 °FCold.2 mph63%30.29 "HgN/A
4:00 AM16 °FCold.2 mph61%30.31 "HgN/A
3:00 AM17 °FCold.1 mph62%30.32 "HgN/A
2:00 AM18 °FCold.2 mph59%30.32 "HgN/A
1:00 AM18 °FCold.2 mph61%30.34 "HgN/A
12:00 AM18 °FCold.1 mph58%30.36 "HgN/A
11:00 PM
Thu, Mar 26
19 °FCold.1 mph53%30.36 "HgN/A
10:00 PM20 °FCold.1 mph48%30.36 "HgN/A
9:00 PM21 °FCold.2 mph41%30.37 "HgN/A
8:00 PM22 °FCold.3 mph47%30.37 "HgN/A
7:00 PM24 °FCold.6 mph43%30.37 "HgN/A
6:00 PM26 °FChilly.6 mph41%30.37 "HgN/A
5:00 PM26 °FChilly.7 mph41%30.36 "HgN/A
4:00 PM26 °FChilly.8 mph35%30.36 "HgN/A
3:00 PM26 °FChilly.7 mph46%30.37 "HgN/A
2:00 PM25 °FChilly.8 mph46%30.37 "HgN/A
1:00 PM25 °FCold.8 mph51%30.37 "HgN/A
12:00 PM24 °FCold.8 mph57%30.37 "HgN/A
11:00 AM23 °FCold.7 mph61%30.36 "HgN/A
Weather by CustomWeather, © 2015

See weather overviewHow to use our weather pages